| time (UTC) | temp C | wind direction | speed KPH | gust KPH | rain 1hr cm | rain 24hr cm | rain mn cm | humidity % | barometer mb |
| 20260502233537 | 17 | 293 | 3.2 | 11.3 | 0.00 | 0.00 | 0.00 | 41 | 1009.6 |
| 20260502232517 | 17 | 270 | 3.2 | 9.7 | 0.00 | 0.00 | 0.00 | 40 | 1009.7 |
| 20260502231537 | 17 | 225 | 3.2 | 11.3 | 0.00 | 0.00 | 0.00 | 39 | 1009.8 |
| 20260502230517 | 17 | 270 | 3.2 | 6.4 | 0.00 | 0.00 | 0.00 | 39 | 1009.9 |
| 20260502225517 | 17 | 203 | 4.8 | 11.3 | 0.00 | 0.00 | 0.00 | 38 | 1010.0 |
| 20260502224537 | 17 | 203 | 4.8 | 8.0 | 0.00 | 0.00 | 0.00 | 38 | 1009.9 |
| 20260502223617 | 17 | 225 | 3.2 | 8.0 | 0.00 | 0.00 | 0.00 | 37 | 1010.2 |
| 20260502222517 | 17 | 225 | 3.2 | 6.4 | 0.00 | 0.00 | 0.00 | 38 | 1010.2 |
| 20260502221517 | 17 | 270 | 4.8 | 12.9 | 0.00 | 0.00 | 0.00 | 38 | 1010.1 |
| 20260502220517 | 17 | 248 | 3.2 | 8.0 | 0.00 | 0.00 | 0.00 | 37 | 1010.2 |
| 20260502215517 | 17 | 203 | 3.2 | 8.0 | 0.00 | 0.00 | 0.00 | 37 | 1010.4 |
| 20260502214517 | 17 | 293 | 1.6 | 6.4 | 0.00 | 0.00 | 0.00 | 36 | 1010.6 |
| 20260502213537 | 17 | 225 | 4.8 | 11.3 | 0.00 | 0.00 | 0.00 | 35 | 1010.8 |
| 20260502212517 | 18 | 270 | 3.2 | 9.7 | 0.00 | 0.00 | 0.00 | 34 | 1011.0 |
| 20260502211517 | 18 | 225 | 4.8 | 11.3 | 0.00 | 0.00 | 0.00 | 33 | 1011.3 |
| 20260502210517 | 18 | 225 | 4.8 | 11.3 | 0.00 | 0.00 | 0.00 | 34 | 1011.3 |
| 20260502205537 | 18 | 270 | 6.4 | 16.1 | 0.00 | 0.00 | 0.00 | 34 | 1011.6 |
| 20260502204517 | 18 | 225 | 6.4 | 16.1 | 0.00 | 0.00 | 0.00 | 35 | 1011.9 |
| 20260502203517 | 18 | 225 | 6.4 | 14.5 | 0.00 | 0.00 | 0.00 | 33 | 1012.2 |
| 20260502202537 | 18 | 225 | 8.0 | 14.5 | 0.00 | 0.00 | 0.00 | 33 | 1012.4 |
| 20260502201557 | 17 | 225 | 6.4 | 12.9 | 0.00 | 0.00 | 0.00 | 35 | 1012.6 |
| 20260502200517 | 18 | 293 | 4.8 | 14.5 | 0.00 | 0.00 | 0.00 | 35 | 1012.7 |
| 20260502195517 | 17 | 225 | 8.0 | 16.1 | 0.00 | 0.00 | 0.00 | 34 | 1012.9 |
| 20260502194517 | 17 | 225 | 6.4 | 16.1 | 0.00 | 0.00 | 0.00 | 37 | 1013.2 |
| 20260502193517 | 17 | 225 | 8.0 | 17.7 | 0.00 | 0.00 | 0.00 | 34 | 1013.2 |
| 20260502192516 | 16 | 203 | 8.0 | 16.1 | 0.00 | 0.00 | 0.00 | 35 | 1013.4 |
| 20260502191517 | 16 | 203 | 9.7 | 16.1 | 0.00 | 0.00 | 0.00 | 35 | 1013.7 |
| 20260502190517 | 16 | 225 | 6.4 | 11.3 | 0.00 | 0.00 | 0.00 | 36 | 1013.9 |
| 20260502185517 | 16 | 225 | 4.8 | 17.7 | 0.00 | 0.00 | 0.00 | 35 | 1014.2 |
| 20260502184517 | 16 | 225 | 6.4 | 14.5 | 0.00 | 0.00 | 0.00 | 34 | 1014.2 |
| 20260502183517 | 16 | 225 | 6.4 | 12.9 | 0.00 | 0.00 | 0.00 | 35 | 1014.3 |
| 20260502182537 | 16 | 225 | 8.0 | 19.3 | 0.00 | 0.00 | 0.00 | 34 | 1014.6 |
| 20260502181516 | 16 | 293 | 4.8 | 12.9 | 0.00 | 0.00 | 0.00 | 36 | 1014.7 |
| 20260502180517 | 16 | 270 | 4.8 | 11.3 | 0.00 | 0.00 | 0.00 | 40 | 1014.7 |
| 20260502170516 | 15 | 203 | 6.4 | 12.9 | 0.00 | 0.00 | 0.00 | 41 | 1015.7 |
| 20260502163516 | 14 | 225 | 4.8 | 12.9 | 0.00 | 0.00 | 0.00 | 39 | 1016.2 |
| 20260502162517 | 14 | 225 | 4.8 | 14.5 | 0.00 | 0.00 | 0.00 | 38 | 1016.3 |
| 20260502161536 | 14 | 225 | 4.8 | 14.5 | 0.00 | 0.00 | 0.00 | 36 | 1016.5 |
| 20260502160516 | 14 | 248 | 3.2 | 8.0 | 0.00 | 0.00 | 0.00 | 40 | 1016.6 |
| 20260502151516 | 12 | 270 | 3.2 | 11.3 | 0.00 | 0.00 | 0.00 | 45 | 1017.0 |
| 20260502150537 | 12 | 293 | 4.8 | 14.5 | 0.00 | 0.00 | 0.00 | 43 | 1017.1 |
| 20260502130516 | 5 | 293 | 3.2 | 6.4 | 0.00 | 0.00 | 0.00 | 72 | 1017.5 |
| 20260502123516 | 2 | 315 | 1.6 | 4.8 | 0.00 | 0.00 | 0.00 | 83 | 1017.2 |
| 20260502122557 | 2 | 0.0 | 3.2 | 0.00 | 0.00 | 0.00 | 85 | 1017.3 | |
| 20260502121516 | 1 | 0.0 | 4.8 | 0.00 | 0.00 | 0.00 | 86 | 1017.2 | |
| 20260502120516 | 1 | 0.0 | 4.8 | 0.00 | 0.00 | 0.00 | 87 | 1017.2 | |
| 20260502115516 | 0 | 0.0 | 1.6 | 0.00 | 0.00 | 0.00 | 86 | 1017.1 | |
| 20260502114516 | 0 | 0.0 | 0.0 | 0.00 | 0.00 | 0.00 | 85 | 1017.1 | |
| 20260502113536 | 0 | 0.0 | 0.0 | 0.00 | 0.00 | 0.00 | 84 | 1017.0 | |
| 20260502112516 | 0 | 0.0 | 0.0 | 0.00 | 0.00 | 0.00 | 84 | 1017.0 | |
| 20260502111516 | 0 | 0.0 | 0.0 | 0.00 | 0.00 | 0.00 | 84 | 1016.9 | |
| 20260502110516 | 0 | 0.0 | 0.0 | 0.00 | 0.00 | 0.00 | 85 | 1016.9 | |
| 20260502105516 | 0 | 0.0 | 0.0 | 0.00 | 0.00 | 0.00 | 85 | 1016.9 | |
| 20260502104516 | 0 | 0.0 | 0.0 | 0.00 | 0.00 | 0.00 | 85 | 1016.9 | |
| 20260502103516 | 0 | 0.0 | 0.0 | 0.00 | 0.00 | 0.00 | 85 | 1017.0 | |
| 20260502102516 | 0 | 0.0 | 0.0 | 0.00 | 0.00 | 0.00 | 85 | 1017.0 | |
| 20260502101516 | 0 | 0.0 | 0.0 | 0.00 | 0.00 | 0.00 | 85 | 1017.0 | |
| 20260502100516 | 0 | 0.0 | 0.0 | 0.00 | 0.00 | 0.00 | 85 | 1017.0 | |
| 20260502090516 | 0 | 0.0 | 0.0 | 0.00 | 0.00 | 0.00 | 76 | 1016.7 | |
| 20260502071516 | 3 | 0.0 | 0.0 | 0.00 | 0.00 | 0.00 | 69 | 1017.1 | |
| 20260502070516 | 3 | 0.0 | 0.0 | 0.00 | 0.00 | 0.00 | 69 | 1017.1 | |
| 20260502065516 | 3 | 0.0 | 0.0 | 0.00 | 0.00 | 0.00 | 68 | 1017.2 | |
| 20260502064516 | 3 | 0.0 | 0.0 | 0.00 | 0.00 | 0.00 | 67 | 1017.3 | |
| 20260502063516 | 3 | 0.0 | 0.0 | 0.00 | 0.00 | 0.00 | 67 | 1017.3 | |
| 20260502062516 | 3 | 0.0 | 0.0 | 0.00 | 0.00 | 0.00 | 66 | 1017.3 | |
| 20260502061516 | 3 | 0.0 | 0.0 | 0.00 | 0.00 | 0.00 | 67 | 1017.2 | |
| 20260502060515 | 3 | 0.0 | 0.0 | 0.00 | 0.00 | 0.00 | 67 | 1017.2 | |
| 20260502055516 | 3 | 0.0 | 0.0 | 0.00 | 0.00 | 0.00 | 67 | 1017.3 | |
| 20260502054516 | 3 | 0.0 | 3.2 | 0.00 | 0.00 | 0.00 | 68 | 1017.3 | |
| 20260502053516 | 3 | 0.0 | 0.0 | 0.00 | 0.00 | 0.00 | 68 | 1017.3 | |
| 20260502052536 | 3 | 0.0 | 0.0 | 0.00 | 0.00 | 0.00 | 69 | 1017.3 | |
| 20260502051516 | 3 | 0.0 | 0.0 | 0.00 | 0.00 | 0.00 | 70 | 1017.3 | |
| 20260502050516 | 3 | 0.0 | 0.0 | 0.00 | 0.00 | 0.00 | 70 | 1017.3 | |
| 20260502045515 | 3 | 0.0 | 0.0 | 0.00 | 0.00 | 0.00 | 72 | 1017.3 | |
| 20260502044515 | 3 | 0.0 | 0.0 | 0.00 | 0.00 | 0.00 | 72 | 1017.3 | |
| 20260502043535 | 4 | 0.0 | 1.6 | 0.00 | 0.00 | 0.00 | 72 | 1017.3 | |
| 20260502042515 | 4 | 0.0 | 1.6 | 0.00 | 0.00 | 0.00 | 71 | 1017.3 | |
| 20260502041515 | 5 | 0.0 | 0.0 | 0.00 | 0.00 | 0.00 | 69 | 1017.3 | |
| 20260502040515 | 5 | 0.0 | 0.0 | 0.00 | 0.00 | 0.00 | 69 | 1017.3 | |
| 20260502035515 | 5 | 0.0 | 0.0 | 0.00 | 0.00 | 0.00 | 68 | 1017.3 | |
| 20260502034515 | 5 | 0.0 | 0.0 | 0.00 | 0.00 | 0.00 | 67 | 1017.3 | |
| 20260502033515 | 6 | 0.0 | 0.0 | 0.00 | 0.00 | 0.00 | 65 | 1017.3 | |
| 20260502032515 | 6 | 0.0 | 0.0 | 0.00 | 0.00 | 0.00 | 64 | 1017.4 | |
| 20260502031515 | 6 | 0.0 | 0.0 | 0.00 | 0.00 | 0.00 | 62 | 1017.3 | |
| 20260502030515 | 6 | 0.0 | 0.0 | 0.00 | 0.00 | 0.00 | 60 | 1017.3 | |
| 20260502025515 | 6 | 0.0 | 0.0 | 0.00 | 0.00 | 0.00 | 58 | 1017.3 | |
| 20260502024555 | 6 | 0.0 | 0.0 | 0.00 | 0.00 | 0.00 | 54 | 1017.3 | |
| 20260502023555 | 6 | 0.0 | 0.0 | 0.00 | 0.00 | 0.00 | 53 | 1017.3 | |
| 20260502022535 | 7 | 0.0 | 0.0 | 0.00 | 0.00 | 0.00 | 49 | 1017.3 | |
| 20260502021515 | 7 | 0.0 | 0.0 | 0.00 | 0.00 | 0.00 | 47 | 1017.1 | |
| 20260502020515 | 7 | 0.0 | 0.0 | 0.00 | 0.00 | 0.00 | 46 | 1017.1 | |
| 20260502015515 | 8 | 0.0 | 0.0 | 0.00 | 0.00 | 0.00 | 46 | 1017.0 | |
| 20260502014515 | 8 | 0.0 | 0.0 | 0.00 | 0.00 | 0.00 | 43 | 1016.9 | |
| 20260502013515 | 8 | 0.0 | 0.0 | 0.00 | 0.00 | 0.00 | 44 | 1016.9 | |
| 20260502012515 | 9 | 0.0 | 0.0 | 0.00 | 0.00 | 0.00 | 42 | 1016.8 | |
| 20260502011517 | 10 | 0.0 | 0.0 | 0.00 | 0.00 | 0.00 | 40 | 1016.8 | |
| 20260502010537 | 10 | 0.0 | 0.0 | 0.00 | 0.00 | 0.00 | 40 | 1016.7 | |
| 20260502005517 | 10 | 0.0 | 0.0 | 0.00 | 0.00 | 0.00 | 38 | 1016.8 | |
| 20260502004517 | 11 | 0.0 | 1.6 | 0.00 | 0.00 | 0.00 | 38 | 1016.8 | |
| 20260502003517 | 11 | 0.0 | 0.0 | 0.00 | 0.00 | 0.00 | 39 | 1016.7 | |
| 20260502002517 | 11 | 0.0 | 3.2 | 0.00 | 0.00 | 0.00 | 38 | 1016.8 | |
| 20260502001517 | 11 | 0.0 | 3.2 | 0.00 | 0.00 | 0.00 | 38 | 1016.7 | |
| 20260502000517 | 11 | 338 | 1.6 | 8.0 | 0.00 | 0.00 | 0.00 | 38 | 1016.7 |
| 20260501235517 | 11 | 270 | 1.6 | 6.4 | 0.00 | 0.00 | 0.00 | 37 | 1016.8 |
| 20260501234537 | 11 | 315 | 3.2 | 9.7 | 0.00 | 0.00 | 0.00 | 35 | 1016.8 |